Regional Weather Roundup
Issued by NWS New Orleans/Baton Rouge, LA

Home | Current Version | Previous Version | Text Only | Print | Product List | Glossary On
Versions: 1 2 3 4 5 6 7 8 9 10 11 12 13 14 15 16 17 18 19 20 21 22 23 24 25 26 27 28 29 30 31 32 33 34 35 36 37 38 39 40 41 42 43 44 45 46 47 48 49 50
967
ASUS44 KLIX 010510
RWRLIX
NEW ORLEANS REGIONAL WEATHER ROUNDUP
NATIONAL WEATHER SERVICE NEW ORLEANS LA
1200 AM CDT FRI AUG 01 2014

NOTE: "FAIR" INDICATES FEW OR NO CLOUDS BELOW 12,000 FEET WITH NO
      SIGNIFICANT WEATHER AND/OR OBSTRUCTIONS TO VISIBILITY.
      SKY/WX - SKY CONDITION AND SIGNIFICANT WEATHER.
      TMP - AIR TEMPERATURE.     DP    - DEWPOINT TEMPERATURE.
      RH  - RELATIVE HUMIDITY.   PRES  - PRESSURE.
      HI  - HEAT INDEX.          WCI   - WIND CHILL INDEX.

*  THESE STATIONS ARE NOT NWS OR FAA STATIONS AND ARE NOT UNDER
   NWS QUALITY CONTROL.

LAZ038-040-048-061>063-065>067-069-010600-
SOUTHEAST LOUISIANA

CITY           SKY/WX    TMP DP  RH WIND       PRES   REMARKS
N.O. AUDUBON     N/A     81  70  68 MISG        N/A
N.O. INTL ARPT CLOUDY    80  69  69 E3        30.00F
N.O. LAKEFRONT CLOUDY    80  69  69 SE5       30.01S
N.O. DOWNTOWN*   N/A     82  66  57 S5        30.01S
SLIDELL        MOCLDY    75  69  81 CALM      30.01S
BATON ROUGE    CLOUDY    76  67  73 E6        30.00S
BOOTHVILLE     CLEAR     77  69  76 SE3       30.01S
BELLE CHASSE   MOCLDY    75  71  87 CALM      30.00F
BOGALUSA*        N/A     73  68  85 CALM      30.03S
GALLIANO*      NOT AVBL
NEW ROADS*       N/A     76  67  74 E5        30.00S
GONZALES*      MOCLDY    78  71  78 CALM      30.00S
HAMMOND*       CLOUDY    75  64  69 E6        30.02S
HOUMA*         MOCLDY    75  68  80 CALM      30.00F
PORT FOURCHON* PTCLDY    82  68  61 SE6       30.02S

$$

MSZ070-080>082-010600-
SOUTHERN MISSISSIPPI

CITY           SKY/WX    TMP DP  RH WIND       PRES   REMARKS
MCCOMB         CLOUDY    73  64  73 NE3       30.03R
GULFPORT       PTCLDY    79  67  66 CALM      30.00S
BILOXI         NOT AVBL
PASCAGOULA     PTCLDY    68  67  96 CALM      30.01R

$$

COASTAL OBSERVATIONS
LAKE AND NEARSHORE STATIONS

STATION/POSITION TIME  TEMP    WIND        PRES    WAVE
                       AIR SEA DIR/SP/G            HT/PER
                 (UTC) (F)     (DEG/KT/KT) (MB)    (FT/S)
PASCAGOULA       0500   76     340/  6/  7 1015.5
WAVELAND YACHT   0500   78      40/  6/  7 1015.6
GRAND ISLE       0500   82 87  120/  3/  7 1016.6
SOUTHWEST PASS   0500   81 85  100/  7/  8 1016.3
NEW CANAL        0500   81 83  140/  2/  3 1016.5
SHELL BEACH      0500   79 82  150/  3/  3 1015.9

OFFSHORE STATIONS

STATION/POSITION TIME  TEMP    WIND        PRES    WAVE
                       AIR SEA DIR/SP/G            HT/PER
                 (UTC) (F)     (DEG/KT/KT) (MB)    (FT/S)
64 S DAUPHIN ISL 0417   82 84   50/  2/  2 1016.0

$$




USA.gov is the U.S. government's official web portal to all federal, state and local government web resources and services.